Starlink 5294

operational
NORAD ID: 54159 Int'l Des: 2022-141 Owner: SPXS Country: US Constellation: starlink
LEOCIRCULAR

Über Starlink 5294

Beschreibung wird geladen...

Live-Position

3D-Globus wird geladen...

Nächste Überflüge

Höhenverlauf

Altitude vs Time

uPlot chart will show altitude changes over time

Zweizeiliger Elementsatz

1 54159U 22141C 25351.80195728 -.00000235 00000-0 33290-5 0 9993
2 54159 53.2196 21.8326 0001523 89.0070 271.1097 15.08838799173353
Epoch: 17. Dez. 2025 • Age: 17 hours

Aktueller Status

Höhe 539.9 km
Geschwindigkeit 7.60 km/s
Subsatellitenpunkt 21.70°N, 83.09°W
Startdatum 28. Okt. 2022
Alter 3.1 years
Typ internet

Technische Details

Klassifizierung Payload
Masse 305.00 kg
Trockenmasse 290.00 kg
Gesamtmasse 305.00 kg
Länge 0.20 m
Durchmesser 2.80 m
Spannweite 9.00 m
Form Box + pan
Hersteller SPXS
Bus-Typ Starlink
Phasenstatus In Orbit
Besitzer/Staat SPXS/US

Große Konstellationen

Loading constellations...